Bentonville, AR

9:24 PM CST on December 09, 2016 (GMT -0600)
Northwest Arkansas Regional

Weather History for KXNA - April, 2013

Change the Weather History Date:

Sunday, April 7, 2013

  Actual Average (KVBT) Record (KVBT)
Temperature  
Mean Temperature 62 °F -  
Max Temperature 73 °F 67 °F 84 °F (1948)
Min Temperature 50 °F 41 °F 24 °F (1982)
Degree Days  
Heating Degree Days 4    
Growing Degree Days 12 (Base 50)    
Moisture  
Dew Point 55 °F    
Average Humidity 77    
Maximum Humidity 100    
Minimum Humidity 57    
Precipitation  
Precipitation 0.00 in - - ()
Sea Level Pressure  
Sea Level Pressure 29.83 in    
Wind  
Wind Speed 9 mph (South)    
Max Wind Speed 24 mph    
Max Gust Speed 30 mph    
Visibility 10 miles    
Events      
Averages and records for this station are not official NWS values.
T = Trace of Precipitation, MM = Missing Value Source: NWS Daily Summary

Daily Weather History Graph

Daily Weather History Graph

Search for Another Location

Airport or City:

Trip Planner

Search our weather history database for the weather conditions in past years. The results will help you decide how hot, cold, wet, or windy it might be!

Date:

Astronomy

Apr. 07, 2013 Rise Set
Actual Time 6:54 AM CDT 7:44 PM CDT
Civil Twilight 6:28 AM CDT 8:10 PM CDT
Nautical Twilight 5:57 AM CDT 8:41 PM CDT
Astronomical Twilight 5:25 AM CDT 9:13 PM CDT
Moon 5:07 AM CDT (4/7) 5:21 PM CDT (4/7)
Length of Visible Light 13h 42m
Length of Day
12h 50m
Waning Crescent, 8% of the Moon is Illuminated
Apr 7
Waning Crescent
Apr 10
New
Apr 18
First Quarter
Apr 25
Full
May 2
Last Quarter

Hourly Weather History & Observations

Time (CDT) Temp. Dew Point Humidity Pressure Visibility Wind Dir Wind Speed Gust Speed Precip Events Conditions
12:53 AM 60.1 °F 50.0 °F 69% 29.87 in 10.0 mi SW 6.9 mph - N/A   Mostly Cloudy
1:53 AM 57.9 °F 50.0 °F 75% 29.86 in 10.0 mi SSW 5.8 mph - N/A   Clear
2:53 AM 57.0 °F 51.1 °F 81% 29.86 in 10.0 mi SW 5.8 mph - N/A   Clear
3:53 AM 55.9 °F 52.0 °F 87% 29.86 in 10.0 mi SW 5.8 mph - N/A   Scattered Clouds
4:53 AM 55.0 °F 52.0 °F 89% 29.87 in 10.0 mi SSW 4.6 mph - N/A   Clear
5:53 AM 51.1 °F 51.1 °F 100% 29.87 in 10.0 mi South 4.6 mph - N/A   Clear
6:53 AM 50.0 °F 50.0 °F 100% 29.88 in 10.0 mi SSE 3.5 mph - N/A   Clear
7:53 AM 55.0 °F 54.0 °F 96% 29.91 in 10.0 mi SSW 3.5 mph - N/A   Clear
8:53 AM 61.0 °F 57.0 °F 87% 29.91 in 10.0 mi South 9.2 mph - N/A   Clear
9:53 AM 64.0 °F 57.9 °F 80% 29.90 in 10.0 mi SSW 12.7 mph - N/A   Clear
10:53 AM 66.9 °F 57.9 °F 73% 29.90 in 10.0 mi SSW 12.7 mph 19.6 mph N/A   Partly Cloudy
11:53 AM 70.0 °F 59.0 °F 68% 29.88 in 10.0 mi SSW 8.1 mph - N/A   Clear
12:53 PM 72.0 °F 59.0 °F 64% 29.86 in 10.0 mi SSW 11.5 mph - N/A   Scattered Clouds
1:53 PM 73.9 °F 57.9 °F 57% 29.83 in 10.0 mi South 12.7 mph - N/A   Scattered Clouds
2:53 PM 72.0 °F 57.9 °F 61% 29.81 in 10.0 mi South 18.4 mph - N/A   Mostly Cloudy
3:53 PM 71.1 °F 57.9 °F 63% 29.78 in 10.0 mi South 18.4 mph 24.2 mph N/A   Mostly Cloudy
4:53 PM 70.0 °F 57.9 °F 65% 29.76 in 10.0 mi SSE 19.6 mph 27.6 mph N/A   Scattered Clouds
5:53 PM 68.0 °F 57.0 °F 68% 29.76 in 10.0 mi South 24.2 mph 29.9 mph N/A   Overcast
6:53 PM 66.0 °F 57.0 °F 73% 29.77 in 10.0 mi South 17.3 mph 27.6 mph N/A   Overcast
7:53 PM 64.0 °F 55.9 °F 75% 29.74 in 10.0 mi SSE 17.3 mph - N/A   Clear
8:53 PM 63.0 °F 55.9 °F 78% 29.74 in 10.0 mi SSE 10.4 mph - N/A   Overcast
9:53 PM 64.0 °F 55.9 °F 75% 29.78 in 10.0 mi South 9.2 mph - N/A   Overcast
10:53 PM 64.0 °F 55.9 °F 75% 29.80 in 10.0 mi SSW 4.6 mph - N/A   Overcast
11:53 PM 62.1 °F 57.0 °F 84% 29.78 in 10.0 mi South 3.5 mph - N/A   Overcast